Погода в Буревале

Пакистан     30°09′24″N   72°40′39″E
темп.,
°C
ветер,
м/с
пор.,
м/с
влажн.,
%
обл.,
%
осадки,
мм/ч
давл.,
гПа
погр.,
м
5 декабря, вс
вс523:00+17зюз11260 0.0 101511
02:00+16юз11300 0.0 101511
05:00+15з00300 0.0 101511
08:00+17вюв11290 0.0 101711
11:00+25ююз22180 0.0 1017764
14:00+26з22140 0.0 10142197
17:00+21ссз22190 0.0 101411
20:00+18ссз22220 0.0 101611
6 декабря, пн
пн623:00+16ссв22270 0.0 101711
02:00+15ссв22360 0.0 101611
05:00+14с22430 0.0 101611
08:00+15ссв23520 0.0 101987
11:00+23с33310 0.0 1019806
14:00+26ссз33210 0.0 10162052
17:00+21ссз22270 0.0 101612
20:00+18ссз22340 0.0 101811
7 декабря, вт
вт723:00+17с33400 0.0 101923
02:00+15св22480 0.0 101810
05:00+14с12500 0.0 101910
08:00+16с11430 0.0 102027
11:00+23сз12260 0.0 1020749
14:00+25сз22194 0.0 10171995
17:00+21ссз22245 0.0 101711
20:00+18ссз22305 0.0 101811
8 декабря, ср
ср823:00+16с11350 0.0 101811
02:00+15с11390 0.0 101711
05:00+14с22410 0.0 101710
08:00+15св11380 0.0 101914
11:00+24сз12220 0.0 1019738
14:00+26сз33160 0.0 10172067
17:00+21ссз22220 0.0 101711
20:00+17с22280 0.0 101911
9 декабря, чт
чт923:00+16с11300 0.0 101911
02:00+15в11330 0.0 101910
05:00+14ссв11350 0.0 101910
08:00+16ссв11310 0.0 102111
11:00+24ссв22190 0.0 1021706
14:00+26ссз33150 0.0 10191937
17:00+21с22200 0.0 101912
20:00+17с22270 0.0 102112